Home   Weather   Richmond   Past weeks
Flag for USA

Past Weather in Richmond, Virginia, USA — Yesterday and Last 2 Weeks

Now
77 °F

Overcast.


Feels Like: 79 °F
Forecast: 73 / 56 °F
Wind: 6 mph from South

Location: Richmond International Airport

Current Time: Apr 25, 2019 at 8:02:45 pm

Latest Report: Apr 25, 2019 at 6:54 pm


Visibility: 10 mi

Pressure: 29.83 "Hg

Humidity: 60%

Dew Point: 62 °F

Location of RichmondLocation

Past Weather in Richmond — Graph

°F

Richmond Temperature Yesterday

Maximum temperature yesterday: 83 °F (at 12:54 pm)
Minimum temperature yesterday: 63 °F (at 3:54 am)
Average temperature yesterday: 73 °F

High & Low Weather Summary for the Past Weeks

 TemperatureHumidityPressure
High84 °F (Apr 17, 2:54 pm)97% (Apr 13, 9:54 pm)30.27 "Hg (Apr 13, 9:54 pm)
Low43 °F (Apr 16, 5:54 am)23% (Apr 16, 2:54 pm)29.44 "Hg (Apr 15, 2:18 am)
Average65 °F66%29.94 "Hg
* Reported Apr 10 6:54 pm — Apr 25 6:54 pm, Richmond. Weather by CustomWeather, © 2019

Note: Actual official high and low records may vary slightly from our data, if they occured in-between our weather recording intervals... More about our weather records

Advertising

Richmond Weather History for the Previous 24 Hours

Scroll right to see more
 ConditionsComfort  
Time TempWeatherWind HumidityBarometerVisibility
6:54 pm
Thu, Apr 25
77 °FOvercast.6 mph60%29.83 "Hg10 mi
5:54 pm79 °FPartly sunny.No wind52%29.83 "Hg10 mi
4:54 pm79 °FPartly sunny.No wind52%29.83 "Hg10 mi
3:54 pm81 °FMostly cloudy.5 mph53%29.83 "Hg10 mi
2:54 pm78 °FPartly sunny.3 mph54%29.84 "Hg10 mi
1:54 pm79 °FMostly cloudy.No wind54%29.86 "Hg10 mi
12:54 pm74 °FMostly cloudy.6 mph64%29.86 "Hg10 mi
11:54 am73 °FMostly cloudy.12 mph66%29.87 "Hg10 mi
10:54 am72 °FMostly cloudy.8 mph66%29.89 "Hg10 mi
9:54 am70 °FPartly sunny.7 mph68%29.89 "Hg10 mi
8:54 am67 °FBroken clouds.5 mph73%29.90 "Hg10 mi
7:54 am63 °FPartly sunny.7 mph81%29.91 "Hg10 mi
6:54 am61 °FScattered clouds.3 mph81%29.90 "Hg10 mi
5:54 am61 °FPassing clouds.7 mph81%29.87 "Hg10 mi
4:54 am61 °FPassing clouds.5 mph83%29.86 "Hg10 mi
3:54 am62 °FPassing clouds.3 mph80%29.87 "Hg10 mi
2:54 am66 °FOvercast.5 mph70%29.88 "Hg10 mi
1:54 am65 °FPassing clouds.5 mph76%29.89 "Hg10 mi
12:54 am66 °FOvercast.6 mph75%29.90 "Hg10 mi
11:54 pm
Wed, Apr 24
67 °FPassing clouds.6 mph76%29.90 "Hg10 mi
10:54 pm66 °FPassing clouds.6 mph78%29.89 "Hg10 mi
9:54 pm68 °FPassing clouds.6 mph76%29.87 "Hg10 mi
8:54 pm70 °FPassing clouds.7 mph66%29.85 "Hg10 mi
Weather by CustomWeather, © 2019

See weather overview